This demonstration page uses our WeatherBlox Daily Observations layout. Learn more.

Hourly Observations for June 17, 2018

Temp ( °F °C ) Dew Point ( °F °C ) Humidity (%) Winds ( mph kmh ) Pressure ( in mb ) Visibility ( mi km ) Precip ( " mm )
12:15 am 00:15 Clear 81 27 64 17.9 58 58 S 16 26 29.65 1004 10 16.09344 0 0
12:35 am 00:35 Clear 80 26.6 65 18.4 61 61 S 15 24 29.65 1004 10 16.09344 0 0
12:55 am 00:55 Clear 80 26.5 66 18.7 62 62 S 15 24 29.65 1004 10 16.09344 0 0
1:15 am 01:15 Clear 79 26.3 66 18.8 63 63 S 14 22 29.65 1004 10 16.09344 0 0
1:35 am 01:35 Clear 79 26 66 18.9 65 65 S 12 19 29.65 1004 10 16.09344 0 0
1:55 am 01:55 Clear 79 26 66 18.8 65 65 S 12 19 29.65 1004 10 16.09344 0 0
2:15 am 02:15 Clear 78 25.7 66 19 67 67 S 10 17 29.65 1004 10 16.09344 0 0
2:35 am 02:35 Clear 78 25.3 66 19 68 68 S 9 15 29.65 1004 10 16.09344 0 0
2:55 am 02:55 Clear 78 25.3 66 18.8 67 67 S 9 15 29.65 1004 10 16.09344 0 0
3:15 am 03:15 Partly Cloudy 78 25.3 64 17.7 63 63 SSW 21 33 29.65 1004 10 16.09344 0 0
3:35 am 03:35 Partly Cloudy 76 24.7 62 16.7 61 61 SSW 15 24 29.65 1004 10 16.09344 0 0
3:55 am 03:55 Partly Cloudy 76 24.3 62 16.8 63 63 SW 13 20 29.68 1005 10 16.09344 0 0
4:15 am 04:15 Partly Cloudy 74 23.6 63 17 67 67 SSW 9 15 29.68 1005 10 16.09344 0 0
4:35 am 04:35 Clear 74 23.2 63 17.2 69 69 S 10 17 29.71 1006 10 16.09344 0 0
4:55 am 04:55 Partly Cloudy 73 23 63 17.2 70 70 S 12 19 29.68 1005 10 16.09344 0 0
5:15 am 05:15 Clear 73 22.9 64 17.5 72 72 SSW 7 11 29.68 1005 10 16.09344 0 0
5:35 am 05:35 Clear 73 22.5 64 17.5 73 73 S 12 19 29.71 1006 10 16.09344 0 0
5:55 am 05:55 Clear 72 22.2 64 17.5 75 75 S 5 7 29.71 1006 10 16.09344 0 0
6:15 am 06:15 Sunny 70 21 64 17.7 82 82 SSE 3 6 29.74 1007 10 16.09344 0 0
6:35 am 06:35 Sunny 69 20.7 64 18 85 85 SSE 5 7 29.74 1007 10 16.09344 0 0
6:55 am 06:55 Sunny 69 20.7 65 18.3 86 86 SE 7 11 29.74 1007 10 16.09344 0 0
7:15 am 07:15 Sunny 70 21.2 65 18.1 83 83 SE 9 15 29.77 1008 7 11.265408 0 0
7:35 am 07:35 Partly Cloudy 71 21.5 65 18.3 82 82 SE 12 19 29.77 1008 10 16.09344 0 0
7:55 am 07:55 Mostly Cloudy 71 21.6 65 18.5 83 83 SE 12 19 29.74 1007 10 16.09344 0 0
8:15 am 08:15 Mostly Cloudy 72 22.1 65 18.5 80 80 SE 13 20 29.74 1007 10 16.09344 0 0
8:35 am 08:35 Partly Cloudy 73 22.5 65 18.6 79 79 SSE 13 20 29.74 1007 10 16.09344 0 0
8:55 am 08:55 Sunny 74 23.3 66 19 77 77 SSE 10 17 29.74 1007 10 16.09344 0 0
9:15 am 09:15 Sunny 75 23.7 66 19 75 75 S 13 20 29.74 1007 10 16.09344 0 0
9:35 am 09:35 Sunny 77 25.1 67 19.5 71 71 S 17 28 29.74 1007 10 16.09344 0 0
9:55 am 09:55 Partly Cloudy 78 25.6 67 19.3 68 68 S 16 26 29.71 1006 10 16.09344 0 0
10:15 am 10:15 Mostly Cloudy 79 26.3 67 19.6 67 67 S 17 28 29.71 1006 10 16.09344 0 0
10:35 am 10:35 Cloudy 78 25.7 67 19.5 69 69 S 14 22 29.74 1007 10 16.09344 0 0
10:55 am 10:55 Cloudy 78 25.7 67 19.6 69 69 S 15 24 29.74 1007 10 16.09344 0 0
11:15 am 11:15 Cloudy 78 25.8 67 19.7 69 69 S 15 24 29.71 1006 10 16.09344 0 0
11:35 am 11:35 Mostly Cloudy 82 27.9 68 20 62 62 S 18 30 29.71 1006 10 16.09344 0 0
11:55 am 11:55 Mostly Cloudy 82 27.8 68 19.8 62 62 S 22 35 29.71 1006 10 16.09344 0 0
12:15 pm 12:15 Mostly Cloudy 82 27.9 67 19.7 61 61 S 18 30 29.71 1006 10 16.09344 0 0
12:35 pm 12:35 Cloudy 83 28.2 68 20 61 61 S 17 28 29.71 1006 10 16.09344 0 0
12:55 pm 12:55 Mostly Cloudy 85 29.3 69 20.3 58 58 S 21 33 29.68 1005 10 16.09344 0 0
1:15 pm 13:15 Mostly Cloudy 85 29.6 68 20.1 57 57 S 17 28 29.68 1005 10 16.09344 0 0
1:35 pm 13:35 Mostly Cloudy 86 30.2 69 20.4 56 56 S 21 33 29.68 1005 10 16.09344 0 0
1:55 pm 13:55 Mostly Cloudy 87 30.6 69 20.3 54 54 SSW 21 33 29.68 1005 10 16.09344 0 0
2:15 pm 14:15 Partly Cloudy 88 30.9 68 19.8 52 52 S 23 37 29.68 1005 10 16.09344 0 0
2:35 pm 14:35 Partly Cloudy 89 31.4 67 19.6 50 50 S 18 30 29.65 1004 10 16.09344 0 0
2:55 pm 14:55 Sunny 88 31.1 66 19.1 49 49 SSW 22 35 29.68 1005 10 16.09344 0 0
3:15 pm 15:15 Sunny 88 31.1 67 19.3 49 49 S 16 26 29.65 1004 10 16.09344 0 0
3:35 pm 15:35 Sunny 88 31 65 18.5 47 47 S 17 28 29.65 1004 10 16.09344 0 0
3:55 pm 15:55 Sunny 89 31.8 65 18.6 45 45 S 20 31 29.65 1004 10 16.09344 0 0
4:15 pm 16:15 Sunny 89 31.8 63 17.1 41 41 S 20 31 29.65 1004 10 16.09344 0 0
4:35 pm 16:35 Sunny 91 32.6 63 17.2 40 40 S 22 35 29.59 1002 10 16.09344 0 0
4:55 pm 16:55 Sunny 91 32.5 64 17.6 41 41 S 23 37 29.59 1002 10 16.09344 0 0
5:15 pm 17:15 Sunny 90 32.1 65 18.4 44 44 S 22 35 29.62 1003 10 16.09344 0 0
5:35 pm 17:35 Sunny 90 32.4 66 19 45 45 S 25 41 29.59 1002 10 16.09344 0 0
5:55 pm 17:55 Sunny 91 32.5 64 18 42 42 S 25 41 29.59 1002 10 16.09344 0 0
6:15 pm 18:15 Sunny 89 31.6 67 19.6 49 49 S 23 37 29.62 1003 10 16.09344 0 0
6:35 pm 18:35 Sunny 89 31.5 67 19.5 49 49 SSE 21 33 29.62 1003 10 16.09344 0 0
6:55 pm 18:55 Partly Cloudy 87 30.6 67 19.6 52 52 S 15 24 29.65 1004 10 16.09344 0 0
7:15 pm 19:15 Sunny 88 30.9 67 19.7 51 51 S 21 33 29.65 1004 10 16.09344 0 0
7:35 pm 19:35 Sunny 87 30.7 67 19.5 51 51 S 17 28 29.65 1004 10 16.09344 0 0
7:55 pm 19:55 Sunny 86 30.1 66 19.1 52 52 S 20 31 29.65 1004 10 16.09344 0 0
8:15 pm 20:15 Sunny 85 29.5 67 19.5 55 55 S 15 24 29.65 1004 10 16.09344 0 0
8:35 pm 20:35 Sunny 84 28.7 67 19.5 58 58 SSE 14 22 29.65 1004 10 16.09344 0 0
8:55 pm 20:55 Sunny 82 28 68 19.8 61 61 S 22 35 29.68 1005 10 16.09344 0 0
9:15 pm 21:15 Clear 80 26.9 66 19 62 62 S 18 30 29.68 1005 10 16.09344 0 0
9:35 pm 21:35 Clear 78 25.8 66 19 66 66 S 14 22 29.71 1006 10 16.09344 0 0
9:55 pm 21:55 Clear 77 25.2 67 19.4 70 70 S 12 19 29.74 1007 10 16.09344 0 0
10:15 pm 22:15 Clear 77 25.2 67 19.4 70 70 S 10 17 29.77 1008 10 16.09344 0 0
10:35 pm 22:35 Clear 78 25.3 67 19.4 70 70 S 9 15 29.77 1008 10 16.09344 0 0
10:55 pm 22:55 Clear 78 25.3 67 19.2 69 69 S 10 17 29.77 1008 10 16.09344 0 0
11:15 pm 23:15 Clear 78 25.5 66 18.8 67 67 SSW 12 19 29.77 1008 10 16.09344 0 0
11:35 pm 23:35 Clear 77 25.1 65 18.6 67 67 S 9 15 29.77 1008 10 16.09344 0 0
11:55 pm 23:55 Clear 76 24.6 65 18.5 69 69 S 8 13 29.77 1008 10 16.09344 0 0

Powered by AerisWeather